CW1394 Weather Reports


time (UTC)temp
F
wind
direction
speed
knots
gust
knots
rain 1hr
in
rain 24hr
in
rain mn
in
humidity
%
barometer
mb
20260503230405 82 302 2.6 6.1 0.00 0.00 0.00 33 1012.6
20260503225404 80 299 2.6 5.2 0.00 0.00 0.00 36 1012.6
20260503224904 80 301 2.6 5.2 0.00 0.00 0.00 39 1012.6
20260503224404 79 319 1.7 2.6 0.00 0.00 0.00 42 1012.6
20260503223904 79 320 1.7 2.6 0.00 0.00 0.00 39 1013.4
20260503222405 78 320 1.7 4.3 0.00 0.00 0.00 39 1013.4
20260503221904 78 320 1.7 4.3 0.00 0.00 0.00 40 1013.4
20260503221404 77 320 2.6 4.3 0.00 0.00 0.00 42 1013.4
20260503220904 77 321 1.7 2.6 0.00 0.00 0.00 40 1013.4
20260503220405 77 321 1.7 2.6 0.00 0.00 0.00 38 1013.4
20260503215404 76 317 1.7 4.3 0.00 0.00 0.00 39 1013.4
20260503214905 76 316 1.7 4.3 0.00 0.00 0.00 39 1013.6
20260503213905 76 328 1.7 4.3 0.00 0.00 0.00 40 1013.6
20260503213404 76 354 2.6 4.3 0.00 0.00 0.00 40 1013.6
20260503212905 76 315 1.7 4.3 0.00 0.00 0.00 42 1013.7
20260503212406 76 332 1.7 4.3 0.00 0.00 0.00 41 1013.7
20260503211904 76 328 1.7 4.3 0.00 0.00 0.00 40 1013.7
20260503205904 75 320 1.7 4.3 0.00 0.00 0.00 40 1013.7
20260503205405 75 315 2.6 5.2 0.00 0.00 0.00 41 1013.9
20260503204405 76 347 1.7 5.2 0.00 0.00 0.00 39 1013.9
20260503203905 76 336 1.7 4.3 0.00 0.00 0.00 39 1013.9
20260503202906 77 332 2.6 4.3 0.00 0.00 0.00 40 1013.9
20260503202405 77 338 2.6 5.2 0.00 0.00 0.00 38 1013.9
20260503201904 78 315 2.6 5.2 0.00 0.00 0.00 38 1014.2
20260503201406 78 313 2.6 5.2 0.00 0.00 0.00 40 1014.2
20260503200905 78 315 2.6 5.2 0.00 0.00 0.00 42 1014.2
20260503200404 78 308 2.6 5.2 0.00 0.00 0.00 40 1014.2
20260503195404 78 318 1.7 4.3 0.00 0.00 0.00 38 1014.2
20260503193904 77 311 2.6 5.2 0.00 0.00 0.00 43 1014.5
20260503193404 77 321 2.6 5.2 0.00 0.00 0.00 46 1014.5
20260503192905 77 299 2.6 5.2 0.00 0.00 0.00 48 1014.7
20260503192404 76 308 1.7 5.2 0.00 0.00 0.00 46 1014.7
20260503191905 76 299 2.6 5.2 0.00 0.00 0.00 48 1014.7
20260503185406 74 321 2.6 5.2 0.00 0.00 0.00 47 1015.2
20260503184905 74 330 2.6 5.2 0.00 0.00 0.00 48 1015.2
20260503184405 74 324 1.7 2.6 0.00 0.00 0.00 47 1015.2
20260503183905 73 324 1.7 4.3 0.00 0.00 0.00 45 1015.2
20260503183406 73 324 1.7 4.3 0.00 0.00 0.00 49 1015.2
20260503182904 72 324 2.6 4.3 0.00 0.00 0.00 50 1015.2
20260503182406 72 317 2.6 4.3 0.00 0.00 0.00 52 1015.2
20260503181904 72 326 1.7 4.3 0.00 0.00 0.00 50 1015.3
20260503181404 72 326 1.7 4.3 0.00 0.00 0.00 51 1015.3
20260503180904 71 326 2.6 4.3 0.00 0.00 0.00 54 1015.3
20260503180404 71 320 2.6 4.3 0.00 0.00 0.00 51 1015.5
20260503175905 71 324 1.7 2.6 0.00 0.00 0.00 49 1015.5
20260503174406 71 307 1.7 2.6 0.00 0.00 0.00 50 1015.5
20260503173904 71 314 0.9 2.6 0.00 0.00 0.00 49 1015.5
20260503173407 71 314 0.9 2.6 0.00 0.00 0.00 50 1015.6
20260503172905 71 333 0.9 2.6 0.00 0.00 0.00 49 1015.6
20260503172405 71 346 0.0 2.6 0.00 0.00 0.00 48 1015.6
20260503171906 71 346 1.7 2.6 0.00 0.00 0.00 50 1015.7
20260503171406 71 346 1.7 4.3 0.00 0.00 0.00 48 1015.7
20260503170406 72 346 2.6 7.0 0.00 0.00 0.00 48 1015.7
20260503150904 64 253 0.9 4.3 0.00 0.00 0.00 58 1016.0
20260503131404 55 321 2.6 5.2 0.00 0.00 0.00 66 1015.5
20260503130904 55 306 2.6 4.3 0.00 0.00 0.00 66 1015.5
20260503130405 55 276 0.9 5.2 0.00 0.00 0.00 65 1015.5
20260503110405 53 177 7.0 7.8 0.00 0.00 0.00 74 1015.6
20260503090404 54 180 6.1 7.0 0.00 0.00 0.00 73 1015.2
20260503080904 53 249 0.0 1.7 0.00 0.00 0.00 72 1015.3
20260503080405 53 249 0.0 4.3 0.00 0.00 0.00 73 1015.3
20260503072904 54 234 0.0 0.0 0.00 0.00 0.00 72 1015.2
20260503071905 54 234 0.0 0.0 0.00 0.00 0.00 71 1015.2
20260503071405 54 237 0.0 0.0 0.00 0.00 0.00 71 1015.2
20260503070905 55 237 0.0 0.0 0.00 0.00 0.00 71 1015.2
20260503070406 55 237 0.0 1.7 0.00 0.00 0.00 71 1015.2
20260503054905 57 273 0.9 4.3 0.00 0.00 0.00 66 1015.3
20260503053904 57 245 0.9 5.2 0.00 0.00 0.00 65 1015.3
20260503053404 58 248 0.9 5.2 0.00 0.00 0.00 65 1015.3
20260503052905 58 202 1.7 7.0 0.00 0.00 0.00 64 1015.3
20260503051907 59 199 4.3 7.0 0.00 0.00 0.00 63 1015.3
20260503051405 59 232 0.9 7.0 0.00 0.00 0.00 62 1015.3
20260503050406 61 205 3.5 7.8 0.00 0.00 0.00 60 1015.2
20260503045904 61 254 2.6 8.7 0.00 0.00 0.00 59 1015.2
20260503045405 62 225 3.5 8.7 0.00 0.00 0.00 57 1015.2
20260503044908 63 236 3.5 8.7 0.00 0.00 0.00 56 1015.0
20260503044404 63 210 1.7 8.7 0.00 0.00 0.00 54 1015.0
20260503043407 63 172 7.0 7.8 0.00 0.00 0.00 55 1014.9
20260503042904 63 177 7.0 7.8 0.00 0.00 0.00 55 1014.9
20260503042405 63 177 7.0 7.0 0.00 0.00 0.00 56 1014.9
20260503041906 63 175 7.0 7.8 0.00 0.00 0.00 56 1014.7
20260503040407 62 172 6.1 7.0 0.00 0.00 0.00 58 1014.8
20260503035906 62 174 6.1 5.2 0.00 0.00 0.00 58 1014.4
20260503035404 63 174 5.2 5.2 0.00 0.00 0.00 58 1014.4
20260503034906 63 175 4.3 4.3 0.00 0.00 0.00 58 1014.4
20260503033904 64 208 4.3 4.3 0.00 0.00 0.00 58 1014.4
20260503033406 64 210 5.2 4.3 0.00 0.00 0.00 56 1014.4
20260503032905 65 221 2.6 4.3 0.00 0.00 0.00 57 1014.3
20260503032404 65 246 0.0 0.0 0.00 0.00 0.00 55 1014.3
20260503031907 66 325 0.0 0.0 0.00 0.00 0.00 54 1014.4
20260503031404 66 325 0.0 0.0 0.00 0.00 0.00 53 1014.4
20260503030905 67 325 0.0 0.0 0.00 0.00 0.00 53 1014.4
20260503030406 67 325 0.0 0.0 0.00 0.00 0.00 52 1014.3
20260503025906 68 325 0.0 0.0 0.00 0.00 0.00 50 1014.3
20260503025406 68 325 0.0 0.0 0.00 0.00 0.00 48 1014.3
20260503024907 69 325 0.0 0.0 0.00 0.00 0.00 46 1014.3
20260503024404 69 325 0.0 0.0 0.00 0.00 0.00 49 1014.3
20260503023904 69 325 0.0 0.0 0.00 0.00 0.00 47 1014.6
20260503023404 69 325 0.0 0.0 0.00 0.00 0.00 45 1014.6
20260503022904 69 325 0.0 0.0 0.00 0.00 0.00 47 1014.6
20260503022405 70 325 0.0 0.0 0.00 0.00 0.00 47 1014.6
20260503021905 70 325 0.0 0.0 0.00 0.00 0.00 46 1014.6
20260503021405 70 325 0.0 0.0 0.00 0.00 0.00 46 1014.6
20260503020904 70 325 0.0 0.0 0.00 0.00 0.00 46 1014.6
20260503020406 70 325 0.0 0.0 0.00 0.00 0.00 44 1014.7
20260503015905 70 325 0.0 0.0 0.00 0.00 0.00 45 1014.7
20260503015406 70 325 0.0 0.0 0.00 0.00 0.00 43 1014.9
20260503014905 70 325 0.0 0.0 0.00 0.00 0.00 45 1014.9
20260503014404 71 325 0.0 0.0 0.00 0.00 0.00 46 1014.9
20260503013906 71 325 0.0 0.0 0.00 0.00 0.00 44 1014.9
20260503013404 71 325 0.0 1.7 0.00 0.00 0.00 44 1014.9
20260503011905 71 322 0.0 2.6 0.00 0.00 0.00 42 1014.9
20260503011404 72 322 0.0 0.9 0.00 0.00 0.00 43 1015.0
20260503010904 72 322 0.0 0.9 0.00 0.00 0.00 40 1015.0
20260503010404 72 322 0.0 1.7 0.00 0.00 0.00 43 1015.1
20260503005905 72 322 0.9 1.7 0.00 0.00 0.00 43 1015.1
20260503005404 73 322 0.9 2.6 0.00 0.00 0.00 44 1015.1
20260503004904 73 326 0.9 2.6 0.00 0.00 0.00 43 1015.1
20260503004405 74 328 0.9 1.7 0.00 0.00 0.00 45 1015.1
20260503003904 74 326 0.9 1.7 0.00 0.00 0.00 42 1015.1
20260503002904 75 325 0.9 2.6 0.00 0.00 0.00 40 1015.1
20260503000906 76 324 0.9 1.7 0.00 0.00 0.00 40 1015.3
20260503000405 76 323 0.0 1.7 0.00 0.00 0.00 38 1015.3
20260502235904 76 321 0.9 2.6 0.00 0.00 0.00 39 1015.3
20260502235404 77 321 1.7 2.6 0.00 0.00 0.00 37 1015.3
20260502234905 77 320 0.9 1.7 0.00 0.00 0.00 39 1015.3
20260502234404 77 320 1.7 1.7 0.00 0.00 0.00 38 1015.5
20260502233905 77 320 0.9 1.7 0.00 0.00 0.00 39 1015.6
20260502233404 77 320 1.7 1.7 0.00 0.00 0.00 37 1015.7
20260502232904 77 319 0.9 1.7 0.00 0.00 0.00 38 1015.7
20260502232404 77 319 0.9 1.7 0.00 0.00 0.00 39 1015.9
20260502231905 77 319 0.9 2.6 0.00 0.00 0.00 39 1015.9
20260502231404 77 319 1.7 2.6 0.00 0.00 0.00 41 1015.9
20260502230904 77 319 0.9 4.3 0.00 0.00 0.00 43 1015.9